This demonstration page uses our WeatherBlox Daily Observations layout. Learn more.

Left ArrowRight Arrow

Hourly Observations for March 31, 2020

Temp ( °F °C ) Dew Point ( °F °C ) Humidity (%) Winds ( mph kmh ) Pressure ( in mb ) Visibility ( mi km ) Precip ( " mm )
12:53 am 00:53 Mostly Cloudy 41 5 33 0.6 73 73 WSW 15 24 29.78 1008 10 16 N/A
1:53 am 01:53 Mostly Cloudy 40 4.4 32 undefined 73 73 SW 9 15 29.81 1009 10 16 N/A
2:53 am 02:53 Cloudy 41 5 28 -2.2 60 60 W 9 15 29.82 1010 10 16 N/A
3:53 am 03:53 Cloudy 39 3.9 29 -1.7 67 67 SW 7 11 29.83 1010 10 16 N/A
4:53 am 04:53 Partly Cloudy 37 2.8 27 -2.8 67 67 WSW 12 19 29.83 1010 10 16 N/A
5:53 am 05:53 Clear 33 0.6 25 -3.9 72 72 W 9 15 29.87 1012 10 16 N/A
6:53 am 06:53 Partly Cloudy 31 -0.6 26 -3.3 82 82 NNW 7 11 29.90 1013 10 16 N/A
7:10 am 07:10 Mostly Cloudy 32 undefined 27 -2.8 82 82 WNW 9 15 29.98 1015 10 16 N/A
7:53 am 07:53 Cloudy 31 -0.6 27 -2.8 85 85 NNW 12 19 29.94 1014 10 16 N/A
8:53 am 08:53 Cloudy 31 -0.6 25 -3.9 79 79 N 14 22 29.95 1014 10 16 N/A
9:53 am 09:53 Cloudy 31 -0.6 24 -4.4 76 76 NW 7 11 29.97 1015 10 16 N/A
10:53 am 10:53 Cloudy 31 -0.6 24 -4.4 76 76 NW 9 15 29.98 1015 10 16 N/A
11:02 am 11:02 Cloudy 31 -0.6 23 -5 72 72 NNW 12 19 30.03 1017 10 16 N/A
11:53 am 11:53 Cloudy 32 undefined 23 -5 69 69 NW 9 15 29.98 1015 10 16 N/A
12:53 pm 12:53 Mostly Cloudy 35 1.7 23 -5 61 61 VRB 6 9 29.97 1015 10 16 N/A
1:07 pm 13:07 Partly Cloudy 36 2.2 23 -5 59 59 NNW 13 20 29.99 1015 10 16 N/A
1:53 pm 13:53 Sunny 38 3.3 23 -5 55 55 NNW 12 19 29.94 1014 10 16 N/A
2:53 pm 14:53 Partly Cloudy 41 5 24 -4.4 51 51 NE 9 15 29.93 1013 10 16 N/A
3:53 pm 15:53 Mostly Cloudy 38 3.3 25 -3.9 60 60 NNE 17 28 29.92 1013 10 16 N/A
4:03 pm 16:03 Mostly Cloudy 37 2.8 25 -3.9 62 62 NE 15 24 29.95 1014 10 16 N/A
4:26 pm 16:26 Mostly Cloudy 36 2.2 23 -5 59 59 NE 15 24 29.96 1014 10 16 N/A
4:53 pm 16:53 Partly Cloudy 36 2.2 23 -5 59 59 NNE 14 22 29.94 1014 10 16 N/A
5:53 pm 17:53 Cloudy 34 1.1 21 -6.1 59 59 NNE 17 28 29.96 1014 10 16 N/A
6:53 pm 18:53 Cloudy 32 undefined 20 -6.7 61 61 NE 15 24 29.98 1015 10 16 N/A
7:30 pm 19:30 Cloudy with Light Snow 30 -1.1 22 -5.6 72 72 NNE 15 24 30.02 1017 3 4 0.00 0.00
7:53 pm 19:53 Cloudy with Light Snow 29 -1.7 23 -5 78 78 NNE 13 20 30.00 1016 2 3 0.00 0.00
8:03 pm 20:03 Cloudy with Light Snow 29 -1.7 23 -5 78 78 NE 13 20 30.05 1018 2 3 0.00 0.00
8:15 pm 20:15 Cloudy with Light Snow 29 -1.7 23 -5 78 78 NE 16 26 30.05 1018 2 3 0.00 0.00
8:31 pm 20:31 Cloudy with Light Snow 28 -2.2 23 -5 81 81 NNE 14 22 30.06 1018 2 3 0.01 0.25
8:53 pm 20:53 Cloudy with Light Snow 27 -2.8 22 -5.6 81 81 NNE 16 26 30.04 1017 2 2 0.01 0.25
9:14 pm 21:14 Cloudy with Light Snow 27 -2.8 22 -5.6 81 81 NE 13 20 30.09 1019 1 2 0.01 0.25
9:28 pm 21:28 Mostly Cloudy with Light Snow 26 -3.3 22 -5.6 84 84 NNE 14 22 30.10 1019 1 2 0.01 0.25
9:53 pm 21:53 Cloudy with Light Snow 25 -3.9 22 -5.6 88 88 NNE 14 22 30.06 1018 1 2 0.02 0.51
9:56 pm 21:56 Cloudy with Light Snow 25 -3.9 22 -5.6 88 88 NNE 14 22 30.11 1020 2 2 0.00 0.00
10:21 pm 22:21 Cloudy with Light Snow 25 -3.9 21 -6.1 85 85 NNE 15 24 30.12 1020 1 2 0.01 0.25
10:53 pm 22:53 Mostly Cloudy with Light Snow 24 -4.4 21 -6.1 88 88 N 17 28 30.08 1019 1 2 0.03 0.76
11:03 pm 23:03 Mostly Cloudy with Light Snow 24 -4.4 20 -6.7 84 84 NNE 15 24 30.14 1021 1 1 0.00 0.00
11:25 pm 23:25 Mostly Cloudy with Light Snow 23 -5 20 -6.7 88 88 N 18 30 30.14 1021 1 2 0.00 0.00
11:53 pm 23:53 Mostly Cloudy with Light Snow 22 -5.6 19 -7.2 89 89 N 17 28 30.09 1019 1 2 0.01 0.25

Powered by AerisWeather